Theta_e
348 348 342 339 341 340 339 339 338 339 342 343 343 343 342 341 333 336 339 336 336 338 338 342 338 338 338 340 340 340 340 335 337 334 331 330 332 340 339 338 344 344 332
348 348 340 336 338 333 332 331 332 333 335 340 342 343 342 340 337 335 333 334 337 337 340 340 340 337 338 337 340 342 340 329 329 330 330 335 335 333 334 338 344 328 331
348 349 339 334 334 332 330 331 333 332 332 334 336 338 338 336 336 336 337 340 337 339 339 340 341 338 338 332 338 340 333 330 330 332 335 341 342 331 327 326 324 326 323
348 349 348 332 333 332 330 332 335 335 331 331 332 331 331 331 336 343 342 336 340 341 335 337 341 341 339 328 332 332 329 327 328 335 338 338 338 338 337 335 332 338 338
349 349 349 332 331 331 330 330 331 334 333 330 336 335 340 341 342 342 340 341 340 335 328 335 334 330 324 330 340 334 330 339 338 345 342 338 342 336 334 342 341 331 333
349 349 346 334 331 331 330 330 331 334 332 329 331 339 337 337 340 340 341 341 339 341 324 326 331 330 342 342 337 329 334 332 340 342 343 339 340 330 335 331 333 338 332
350 349 342 339 336 332 331 331 331 334 333 330 329 332 332 333 334 342 336 338 341 342 325 342 336 331 328 328 326 332 330 331 342 342 343 342 341 321 323 341 329 329 337
349 350 350 344 344 339 335 333 333 335 335 333 334 336 338 341 331 340 339 339 341 333 325 341 335 335 329 329 335 336 333 340 343 342 343 343 329 322 320 338 329 329 331
349 350 352 348 346 346 338 336 335 336 336 336 337 335 336 332 333 336 341 336 341 340 326 335 337 341 335 337 340 339 338 340 347 343 341 340 330 330 330 329 333 328 328
349 349 351 352 350 349 341 338 336 337 336 338 342 345 344 342 342 335 332 333 338 338 326 340 339 339 338 339 340 339 337 337 344 342 342 338 325 325 330 333 330 334 330
350 350 350 350 351 348 348 343 339 341 339 338 343 341 346 350 347 342 345 339 338 340 325 331 339 338 338 339 340 341 339 345 342 341 342 341 335 328 326 325 328 337 324
349 349 349 350 351 349 349 348 348 348 345 347 348 346 350 350 349 349 347 340 340 337 331 324 331 332 337 343 341 339 344 344 343 343 344 343 342 340 337 329 324 325 325
348 349 349 349 351 350 348 348 347 347 350 349 348 349 350 349 347 346 348 344 344 339 344 337 339 340 342 342 342 343 346 346 343 343 346 343 344 343 342 338 330 325 325
348 348 349 350 350 349 349 349 350 349 350 345 351 346 349 349 349 348 348 348 345 343 343 345 342 342 342 342 343 344 346 345 343 345 346 343 343 344 342 342 339 331 328
349 350 350 351 350 349 348 349 348 348 350 351 351 348 349 348 348 348 348 346 347 348 344 342 346 344 345 342 342 342 344 345 345 345 345 346 343 343 342 342 342 339 334
349 350 351 351 347 342 344 345 347 348 348 349 349 349 343 348 340 342 348 345 343 347 344 344 345 346 344 343 342 343 343 343 344 345 346 347 345 343 343 343 342 342 340
348 350 351 346 343 338 337 342 344 344 344 347 347 347 338 339 339 342 348 346 346 347 346 344 345 347 347 344 343 343 344 343 343 345 346 347 349 346 343 343 343 344 343
348 351 351 350 346 344 342 343 347 347 346 347 345 347 341 337 341 344 348 347 347 348 347 347 343 347 347 346 346 344 344 344 345 347 348 347 347 347 349 344 344 344 344
350 352 352 349 347 346 345 346 342 346 345 348 349 348 338 336 342 344 348 348 348 348 348 348 345 348 347 345 346 348 346 344 344 346 348 347 347 347 347 350 346 343 342
350 348 349 348 348 346 347 345 348 347 347 350 350 351 349 340 342 342 346 348 348 347 346 347 347 348 347 347 346 349 347 347 345 346 347 347 347 349 350 350 351 350 348
351 344 343 346 348 347 348 350 349 347 348 351 351 352 351 344 343 343 343 345 347 348 348 348 349 346 347 347 348 346 347 348 346 347 347 347 347 349 350 349 350 350 350
351 346 340 343 346 346 348 351 352 350 350 351 352 352 350 346 347 347 345 348 348 347 348 347 347 348 346 347 346 344 343 344 345 346 346 347 347 347 348 349 350 350 348
352 350 338 339 343 344 349 353 351 354 354 355 355 354 353 350 350 346 347 347 349 347 347 347 346 346 347 347 346 345 344 342 343 345 346 347 347 347 348 349 350 348 347
352 353 335 338 342 343 345 354 352 353 353 354 354 354 354 348 348 349 344 345 346 347 348 346 346 345 343 342 344 346 345 347 343 346 347 348 350 348 346 347 349 344 341
352 351 337 337 340 344 346 351 352 351 353 354 352 353 350 352 347 347 347 347 344 344 347 347 345 346 343 342 344 344 345 347 345 344 346 347 348 348 348 344 345 346 347
352 351 341 342 341 343 346 347 348 354 354 356 352 350 345 351 348 342 348 345 346 346 344 346 344 342 342 343 344 344 345 346 345 344 343 343 345 345 348 345 342 340 346
Wind_Speed
18 19 20 19 19 17 16 15 13 12 12 14 14 13 12 9 11 12 12 11 10 9 10 11 12 13 13 10 7 7 10 10 10 9 10 10 11 12 11 16 17 10 13
21 21 21 20 19 18 16 15 14 14 13 14 13 12 11 10 11 11 10 10 8 8 10 11 12 13 11 9 9 12 11 10 11 11 11 11 12 10 12 16 17 9 12
21 21 22 20 21 19 17 16 14 12 13 13 13 12 11 11 10 10 10 10 9 8 11 10 12 13 10 9 11 11 11 12 12 13 15 9 9 11 11 11 12 11 10
20 20 20 19 19 19 17 15 14 12 11 11 12 12 11 11 12 11 10 10 9 8 9 10 11 10 9 10 11 11 13 12 13 16 10 9 8 12 11 11 11 10 10
19 18 19 19 19 19 17 15 13 12 11 11 12 12 11 11 10 11 11 10 9 7 8 10 9 9 11 14 13 12 12 12 14 14 8 9 8 9 10 10 8 8 12
20 16 17 17 17 18 17 15 12 11 10 10 12 12 10 10 9 9 10 9 9 7 7 11 11 11 15 13 12 13 12 13 13 9 7 10 9 7 9 10 9 8 8
21 18 17 16 15 15 16 15 13 11 10 11 13 11 11 10 9 9 9 9 9 8 9 11 10 12 14 14 15 13 12 14 9 7 7 6 6 9 9 8 6 7 7
21 19 19 17 15 15 14 15 14 12 11 11 12 11 11 10 10 10 10 10 10 7 10 12 9 13 14 16 14 11 11 11 8 5 6 5 6 8 10 8 6 5 5
20 20 18 18 17 15 15 15 14 12 11 11 11 11 11 10 10 11 10 10 9 7 9 11 12 12 15 12 9 10 8 9 7 4 4 4 5 6 6 6 5 4 4
20 19 19 17 17 17 15 15 14 13 11 11 11 10 9 9 10 9 10 11 10 8 9 13 12 13 14 11 10 8 7 8 6 5 6 7 4 5 6 5 4 3 3
21 20 19 19 18 18 16 15 15 14 13 12 12 12 11 7 7 7 9 9 10 8 9 15 14 14 13 12 11 9 10 4 6 6 4 3 3 3 2 2 3 5 4
23 22 20 19 18 18 15 15 15 14 14 12 12 11 9 9 8 9 9 10 10 9 8 12 14 14 14 8 7 9 6 6 7 6 6 4 3 2 2 2 3 5 5
23 22 22 21 20 18 18 16 17 14 14 14 13 12 11 11 9 9 7 9 9 11 9 11 11 11 11 11 11 9 8 9 7 6 9 4 5 6 5 3 3 5 5
24 23 22 21 21 22 19 18 16 16 15 17 13 14 12 10 10 10 9 12 14 13 16 14 11 11 12 14 13 12 11 9 9 8 9 8 7 6 7 6 5 5 5
25 24 23 23 23 22 21 18 18 16 15 13 14 15 13 11 10 8 10 11 11 11 13 14 15 14 13 13 13 14 13 12 11 10 9 13 8 6 8 7 7 7 7
25 25 23 23 23 23 22 21 20 17 16 17 15 15 17 13 13 8 7 10 16 13 14 13 12 12 13 13 13 14 15 14 13 11 11 12 12 9 9 8 7 7 7
25 24 25 24 23 24 24 22 20 20 19 17 16 17 20 18 16 11 7 9 11 11 14 14 14 14 14 14 15 14 15 15 15 14 13 12 12 13 13 11 10 9 9
26 26 26 24 24 23 23 22 19 18 18 16 17 16 21 21 18 15 10 10 12 13 13 14 15 13 14 15 15 15 16 16 15 16 14 14 14 12 13 15 14 12 12
28 27 27 27 26 23 22 20 21 20 19 17 16 16 19 21 21 17 12 12 13 12 14 13 15 14 14 15 16 17 16 16 17 16 16 15 16 16 14 14 16 15 15
30 30 29 29 27 25 22 22 18 19 20 18 18 17 18 20 21 18 17 16 15 14 14 15 16 15 16 16 16 17 14 17 17 18 18 17 17 17 16 16 15 14 16
30 33 33 33 31 29 27 23 20 22 21 19 18 18 17 19 19 18 18 18 17 17 17 17 16 17 17 18 17 18 17 17 18 18 18 18 17 17 15 16 17 15 16
34 35 35 35 34 33 28 25 20 20 19 20 19 20 20 19 19 18 19 16 18 19 19 20 19 17 18 19 19 17 19 18 20 19 18 18 17 17 15 16 16 17 17
35 36 36 35 35 34 30 24 24 17 17 18 19 18 20 20 19 19 19 20 19 20 21 20 21 22 21 21 23 19 15 19 16 18 19 19 17 16 17 17 18 17 18
34 32 36 37 35 34 34 25 27 24 22 20 17 17 18 21 21 20 20 19 20 19 20 22 21 23 24 27 26 28 23 9 15 9 12 17 19 17 20 16 14 15 17
36 38 39 42 38 37 36 32 28 27 21 18 21 17 20 19 20 21 22 23 24 22 22 19 20 21 24 28 30 28 27 22 15 12 9 10 10 11 11 10 11 12 14
35 36 40 41 41 38 39 36 33 27 25 20 20 22 18 17 18 20 20 21 21 21 22 20 20 21 21 24 28 29 28 25 22 20 19 18 12 11 10 14 15 14 13
Wind_Direction
158 165 162 163 165 158 157 156 153 153 154 156 159 156 151 140 141 143 139 135 132 138 136 145 151 147 152 144 157 158 141 135 136 130 123 113 120 124 116 105 87 119 112
156 162 164 166 162 157 157 152 151 152 152 156 162 164 158 153 147 154 147 140 131 131 135 144 154 153 154 144 139 145 144 132 132 127 121 123 130 130 124 124 135 131 118
156 162 164 169 166 162 160 153 149 148 152 159 164 167 163 162 153 142 142 141 138 128 140 133 148 151 152 145 144 138 138 127 129 123 100 114 125 121 121 127 126 114 123
156 161 164 170 169 168 166 159 152 150 151 156 162 162 161 164 160 158 153 148 141 141 150 150 149 152 154 147 149 146 137 133 131 108 99 119 123 125 127 118 122 119 112
158 159 174 171 171 173 172 167 162 155 155 155 157 159 162 158 161 164 161 152 153 149 150 149 151 156 150 141 144 144 134 132 129 98 128 126 123 136 136 129 116 117 124
156 160 186 172 171 174 175 172 169 160 153 153 159 159 165 164 154 158 162 159 155 153 146 152 146 143 143 151 153 155 144 130 104 136 131 136 132 156 142 143 146 145 129
160 164 177 173 172 177 177 176 175 170 163 158 158 160 161 160 162 162 161 163 164 156 150 149 149 150 152 153 150 146 136 127 120 131 137 124 160 149 150 144 152 149 143
164 166 170 172 177 180 183 181 179 176 173 165 157 160 160 159 159 162 162 167 167 164 164 165 164 158 152 145 143 138 133 124 106 141 146 129 151 144 149 149 152 149 145
169 167 174 173 177 186 188 189 185 182 178 171 166 167 166 159 157 166 169 172 172 175 166 171 169 168 168 164 158 156 149 139 143 174 141 148 139 139 145 162 162 156 152
173 174 175 176 180 184 189 193 190 189 184 177 173 177 169 168 171 167 169 175 178 187 178 171 184 176 168 169 166 161 151 123 130 176 146 198 174 154 178 168 182 197 201
178 179 180 181 186 186 185 195 192 194 193 189 181 184 177 175 177 186 181 193 186 191 185 188 189 189 182 179 173 164 145 158 179 165 168 193 147 143 161 187 200 211 222
182 183 184 184 189 183 187 197 189 195 192 195 190 193 169 185 184 181 201 197 193 194 193 193 197 196 193 199 209 192 171 200 177 191 215 245 226 211 191 194 215 234 242
184 185 187 186 185 184 186 193 187 195 194 197 196 191 188 198 203 185 215 204 207 197 192 191 200 198 203 196 208 207 210 201 200 209 231 241 287 256 239 247 245 244 243
189 187 189 188 187 190 193 190 193 193 196 203 198 196 199 194 208 196 214 229 208 203 192 185 198 201 209 210 209 212 214 203 219 216 243 262 294 259 243 254 256 252 253
193 189 190 190 193 194 195 197 194 195 198 199 205 207 197 198 204 210 223 215 216 219 204 198 193 202 216 219 220 221 223 222 224 216 230 263 274 268 248 255 252 250 250
196 192 192 195 198 198 200 200 200 198 203 201 204 210 204 200 213 222 228 218 217 197 220 200 209 209 213 222 230 225 226 229 235 235 233 257 262 265 260 253 257 256 253
200 196 195 200 203 203 206 207 208 210 204 210 209 213 220 213 215 216 225 209 218 214 208 209 205 211 216 217 228 234 233 232 234 242 241 240 259 272 263 253 255 258 261
196 198 198 200 205 207 208 210 206 208 210 212 215 217 224 219 222 228 214 221 216 215 229 217 216 207 226 225 229 234 239 234 241 234 237 237 246 251 271 268 254 258 266
195 199 202 203 206 208 211 209 212 211 209 212 214 220 230 225 222 231 222 227 217 213 224 229 225 219 222 228 233 234 229 236 238 241 246 243 245 246 249 266 267 260 263
196 203 206 207 208 209 211 210 209 211 212 211 213 218 224 218 226 234 226 221 225 220 223 225 229 234 231 233 235 240 232 233 237 239 243 247 248 247 248 251 264 275 276
197 201 208 209 209 211 208 207 204 209 211 213 215 216 220 218 224 232 238 239 233 224 226 231 232 233 236 236 231 236 246 242 235 239 248 246 243 246 244 253 254 262 270
197 199 208 211 211 212 212 207 207 209 214 218 225 226 225 228 230 233 236 237 241 232 236 234 232 231 240 232 231 231 232 235 239 240 239 244 244 246 247 257 258 259 267
200 198 204 210 213 213 210 209 212 211 212 224 225 227 228 228 232 238 239 235 236 237 237 237 235 237 231 234 228 221 222 234 231 230 232 235 240 243 247 255 257 267 272
200 199 205 208 211 215 214 208 213 212 213 222 224 229 229 236 236 237 243 241 239 238 243 242 246 242 241 240 233 219 225 235 227 209 232 235 236 242 243 248 257 269 273
202 200 204 210 206 214 215 209 217 221 225 227 227 229 235 236 238 244 246 245 245 239 237 237 242 245 247 245 235 222 220 224 233 233 226 216 225 235 241 247 256 266 269
206 204 207 211 209 211 216 216 222 222 220 220 226 232 243 236 242 252 238 240 239 241 240 243 246 253 247 245 234 218 217 215 223 232 237 249 250 235 239 261 269 270 255